Location: ??????
(38.3184°N, 23.6932°E)
Time: 02:03:41
(UTC+00:00)

Iridium 4 Rocket - Pass Details

Date: 16 October 2021
Orbit: 586 x 903 km, 86.9° (Epoch: 04 December)

Event Time Altitude Azimuth Distance (km) Brightness Sun altitude
Rises 17:47:46 0° 351° (N) 2,899 6.7 -24.6°
Reaches altitude 10° 17:49:58 10° 345° (NNW) 2,022 5.9 -25.1°
Maximum altitude 17:54:14 46° 272° (W) 892 4.2 -25.9°
Drops below altitude 10° 17:58:49 10° 200° (SSW) 2,177 5.9 -26.8°
Sets 18:01:16 0° 194° (SSW) 3,147 6.7 -27.3°
